This is the latest recevied weather packets stored in our database for station/object AI5KP-13. If no packets are shown the sender has not sent any weather packets the latest 10 day(s).
| Time | Temp. | Humidity | Pressure | Rain* | Wind** | Luminosity | Snow |
|---|---|---|---|---|---|---|---|
| 1777482199 | 20° C | 57% | 1017.6 hPa | 0 mm | - | 576 W/m² | - |
| 1777481896 | 20° C | 61% | 1017.5 hPa | 0 mm | - | 729 W/m² | - |
| 1777481594 | 18.89° C | 62% | 1017.6 hPa | 0 mm | - | 744 W/m² | - |
| 1777481291 | 18.33° C | 65% | 1017.7 hPa | 0 mm | - | 747 W/m² | - |
| 1777480987 | 18.33° C | 62% | 1017.9 hPa | 0 mm | - | 259 W/m² | - |
| 1777480683 | 19.44° C | 62% | 1018 hPa | 0 mm | - | 717 W/m² | - |
| 1777480380 | 19.44° C | 64% | 1017.8 hPa | 0 mm | - | 404 W/m² | - |
| 1777480076 | 18.89° C | 62% | 1017.9 hPa | 0 mm | - | 771 W/m² | - |
| 1777479772 | 17.78° C | 64% | 1017.9 hPa | 0 mm | - | 400 W/m² | - |
| 1777479470 | 18.33° C | 66% | 1017.9 hPa | 0 mm | - | 699 W/m² | - |
| 1777479167 | 18.33° C | 63% | 1017.8 hPa | 0 mm | - | 732 W/m² | - |
| 1777478864 | 18.33° C | 63% | 1017.9 hPa | 0 mm | - | 317 W/m² | - |
| 1777478559 | 17.78° C | 65% | 1017.9 hPa | 0 mm | - | 693 W/m² | - |
| 1777478257 | 17.78° C | 66% | 1017.9 hPa | 0 mm | - | 577 W/m² | - |
| 1777477953 | 18.89° C | 66% | 1017.9 hPa | 0 mm | - | 463 W/m² | - |
| 1777477649 | 18.33° C | 65% | 1017.9 hPa | 0 mm | - | 618 W/m² | - |
| 1777477346 | 18.33° C | 67% | 1018 hPa | 0 mm | - | 637 W/m² | - |
| 1777477042 | 17.78° C | 66% | 1017.9 hPa | 0 mm | - | 614 W/m² | - |
| 1777476740 | 17.22° C | 68% | 1018 hPa | 0 mm | - | 587 W/m² | - |
| 1777476436 | 16.11° C | 71% | 1017.8 hPa | 0 mm | - | 566 W/m² | - |
| 1777476133 | 16.67° C | 71% | 1017.9 hPa | 0 mm | - | 583 W/m² | - |
| 1777475829 | 16.67° C | 70% | 1017.4 hPa | 0 mm | - | 543 W/m² | - |
| 1777475525 | 16.11° C | 72% | 1017.5 hPa | 0 mm | - | 370 W/m² | - |
| 1777475221 | 16.11° C | 72% | 1017.3 hPa | 0 mm | - | 510 W/m² | - |
| 1777474917 | 16.11° C | 72% | 1017.2 hPa | 0 mm | - | 497 W/m² | - |
* Rain latest hour (hover to see other rain measurements)
** Current wind speed in m/s (hover to see current wind gust speed)